• In Deutschland
  • Länderverzeichnis
  • Für 7 Tage
  • Wassertemperatur
  • Satellitenkarten
  • Wetterkarte
  • Widgets
  • user-avatar
    Anmelden

    Stündliche Wetter Kitzbühel

    Heute, 25 September, Montag

    Zeit Temperatur Niederschläge Wind Luftdruck Luftfeuchtigkeit
    00:00 +7°C° 0 mm 1 m/S 679 mmHg 92%
    01:00 +6°C° 0 mm 1 m/S 679 mmHg 91%
    02:00 +6°C° 0 mm 1 m/S 679 mmHg 90%
    03:00 +6°C° 0 mm 1 m/S 678 mmHg 89%
    04:00 +6°C° 0 mm 1 m/S 678 mmHg 88%
    05:00 +6°C° 0 mm 1 m/S 678 mmHg 87%
    06:00 +6°C° 0 mm 1 m/S 678 mmHg 85%
    07:00 +6°C° 0 mm 1 m/S 678 mmHg 84%
    08:00 +9°C° 0 mm 1 m/S 679 mmHg 77%
    09:00 +12°C° 0 mm 1 m/S 679 mmHg 70%
    10:00 +13°C° 0 mm 0 m/S 680 mmHg 62%
    11:00 +15°C° 0 mm 1 m/S 680 mmHg 60%
    12:00 +16°C° 0 mm 1 m/S 679 mmHg 57%
    13:00 +18°C° 0 mm 1 m/S 679 mmHg 54%
    14:00 +16°C° 0 mm 1 m/S 679 mmHg 58%
    15:00 +16°C° 0 mm 1 m/S 679 mmHg 61%
    16:00 +15°C° 0 mm 1 m/S 679 mmHg 64%
    17:00 +13°C° 0 mm 1 m/S 678 mmHg 73%
    18:00 +11°C° 0 mm 1 m/S 678 mmHg 82%
    19:00 +9°C° 0 mm 1 m/S 678 mmHg 90%
    20:00 +8°C° 0 mm 1 m/S 678 mmHg 90%
    21:00 +8°C° 0 mm 1 m/S 679 mmHg 89%
    22:00 +7°C° 0 mm 1 m/S 679 mmHg 88%
    23:00 +7°C° 0 mm 1 m/S 679 mmHg 88%

    Morgen, 26 September, Dienstag

    Zeit Temperatur Niederschläge Wind Luftdruck Luftfeuchtigkeit
    00:00 +7°C° 0 mm 1 m/S 679 mmHg 88%
    01:00 +7°C° 0 mm 1 m/S 679 mmHg 87%
    02:00 +6°C° 0 mm 1 m/S 678 mmHg 87%
    03:00 +6°C° 0 mm 1 m/S 678 mmHg 87%
    04:00 +6°C° 0 mm 1 m/S 678 mmHg 86%
    05:00 +6°C° 0 mm 1 m/S 679 mmHg 85%
    06:00 +7°C° 0 mm 1 m/S 679 mmHg 83%
    07:00 +7°C° 0 mm 1 m/S 679 mmHg 82%
    08:00 +10°C° 0 mm 1 m/S 680 mmHg 74%
    09:00 +13°C° 0 mm 1 m/S 680 mmHg 66%
    10:00 +16°C° 0 mm 1 m/S 681 mmHg 58%
    11:00 +16°C° 0 mm 1 m/S 681 mmHg 56%
    12:00 +18°C° 0 mm 1 m/S 681 mmHg 55%
    13:00 +18°C° 0 mm 1 m/S 681 mmHg 54%
    14:00 +18°C° 0,1 mm 1 m/S 680 mmHg 59%
    15:00 +16°C° 0,1 mm 1 m/S 680 mmHg 63%
    16:00 +16°C° 0,1 mm 1 m/S 680 mmHg 68%
    17:00 +14°C° 0,1 mm 1 m/S 680 mmHg 76%
    18:00 +11°C° 0,1 mm 1 m/S 680 mmHg 83%
    19:00 +9°C° 0,1 mm 1 m/S 680 mmHg 91%
    20:00 +9°C° 0 mm 1 m/S 680 mmHg 91%
    21:00 +9°C° 0 mm 1 m/S 680 mmHg 90%
    22:00 +8°C° 0 mm 1 m/S 680 mmHg 90%
    23:00 +8°C° 0 mm 1 m/S 680 mmHg 89%

    übermorgen, 27 September, Mittwoch

    Zeit Temperatur Niederschläge Wind Luftdruck Luftfeuchtigkeit
    00:00 +8°C° 0 mm 1 m/S 680 mmHg 88%
    01:00 +7°C° 0 mm 1 m/S 680 mmHg 88%
    02:00 +7°C° 0 mm 1 m/S 680 mmHg 88%
    03:00 +7°C° 0 mm 1 m/S 680 mmHg 87%
    04:00 +7°C° 0 mm 1 m/S 680 mmHg 87%
    05:00 +7°C° 0 mm 1 m/S 680 mmHg 86%
    06:00 +8°C° 0 mm 1 m/S 681 mmHg 85%
    07:00 +8°C° 0 mm 1 m/S 681 mmHg 84%
    08:00 +11°C° 0 mm 1 m/S 681 mmHg 76%
    09:00 +13°C° 0 mm 1 m/S 682 mmHg 68%
    10:00 +16°C° 0 mm 1 m/S 683 mmHg 60%
    11:00 +18°C° 0 mm 1 m/S 682 mmHg 59%
    12:00 +19°C° 0 mm 1 m/S 682 mmHg 57%
    13:00 +19°C° 0 mm 1 m/S 682 mmHg 55%
    14:00 +18°C° 0,1 mm 2 m/S 682 mmHg 60%
    15:00 +17°C° 0,1 mm 2 m/S 682 mmHg 65%
    16:00 +17°C° 0,1 mm 2 m/S 682 mmHg 69%
    17:00 +15°C° 0 mm 1 m/S 681 mmHg 77%
    18:00 +12°C° 0 mm 1 m/S 681 mmHg 84%
    19:00 +10°C° 0 mm 1 m/S 681 mmHg 91%
    20:00 +10°C° 0 mm 1 m/S 681 mmHg 91%
    21:00 +10°C° 0 mm 1 m/S 681 mmHg 90%
    22:00 +9°C° 0 mm 1 m/S 681 mmHg 90%
    23:00 +9°C° 0 mm 1 m/S 681 mmHg 89%

    28 September, Donnerstag

    Zeit Temperatur Niederschläge Wind Luftdruck Luftfeuchtigkeit
    00:00 +9°C° 0 mm 1 m/S 681 mmHg 88%
    01:00 +8°C° 0 mm 1 m/S 681 mmHg 88%
    02:00 +8°C° 0 mm 1 m/S 681 mmHg 87%
    03:00 +8°C° 0 mm 1 m/S 681 mmHg 86%
    04:00 +8°C° 0 mm 1 m/S 681 mmHg 85%
    05:00 +8°C° 0 mm 1 m/S 681 mmHg 84%
    06:00 +9°C° 0 mm 1 m/S 681 mmHg 82%
    07:00 +9°C° 0 mm 1 m/S 681 mmHg 81%
    08:00 +12°C° 0 mm 1 m/S 682 mmHg 73%
    09:00 +15°C° 0 mm 1 m/S 683 mmHg 65%
    10:00 +16°C° 0 mm 0 m/S 683 mmHg 57%
    11:00 +19°C° 0 mm 1 m/S 683 mmHg 56%
    12:00 +19°C° 0 mm 1 m/S 683 mmHg 56%
    13:00 +20°C° 0 mm 1 m/S 683 mmHg 55%
    14:00 +19°C° 0,2 mm 1 m/S 682 mmHg 61%
    15:00 +18°C° 0,2 mm 1 m/S 682 mmHg 67%
    16:00 +18°C° 0,2 mm 1 m/S 682 mmHg 72%
    17:00 +15°C° 0,2 mm 1 m/S 682 mmHg 79%
    18:00 +13°C° 0,2 mm 1 m/S 682 mmHg 85%
    19:00 +11°C° 0,2 mm 1 m/S 682 mmHg 92%
    20:00 +11°C° 0,1 mm 1 m/S 682 mmHg 92%
    21:00 +10°C° 0,1 mm 1 m/S 682 mmHg 92%
    22:00 +10°C° 0,1 mm 1 m/S 682 mmHg 92%
    23:00 +9°C° 0 mm 1 m/S 682 mmHg 92%

    29 September, Freitag

    Zeit Temperatur Niederschläge Wind Luftdruck Luftfeuchtigkeit
    00:00 +9°C° 0 mm 1 m/S 682 mmHg 91%
    01:00 +9°C° 0 mm 1 m/S 681 mmHg 90%
    02:00 +9°C° 0 mm 1 m/S 681 mmHg 90%
    03:00 +9°C° 0 mm 1 m/S 681 mmHg 89%
    04:00 +8°C° 0 mm 1 m/S 681 mmHg 88%
    05:00 +9°C° 0 mm 1 m/S 681 mmHg 87%
    06:00 +9°C° 0 mm 1 m/S 681 mmHg 87%
    07:00 +9°C° 0 mm 1 m/S 681 mmHg 86%
    08:00 +11°C° 0 mm 1 m/S 681 mmHg 78%
    09:00 +13°C° 0 mm 0 m/S 682 mmHg 71%
    10:00 +15°C° 0 mm 0 m/S 682 mmHg 64%
    11:00 +18°C° 0 mm 1 m/S 682 mmHg 63%
    12:00 +18°C° 0 mm 1 m/S 681 mmHg 62%
    13:00 +19°C° 0 mm 1 m/S 681 mmHg 61%
    14:00 +18°C° 0,1 mm 1 m/S 681 mmHg 65%
    15:00 +18°C° 0,1 mm 1 m/S 681 mmHg 69%
    16:00 +16°C° 0,1 mm 1 m/S 680 mmHg 73%
    17:00 +14°C° 0,1 mm 1 m/S 680 mmHg 80%
    18:00 +12°C° 0,1 mm 1 m/S 680 mmHg 87%
    19:00 +9°C° 0,1 mm 0 m/S 680 mmHg 95%
    20:00 +10°C° 0 mm 1 m/S 680 mmHg 95%
    21:00 +9°C° 0 mm 1 m/S 680 mmHg 95%
    22:00 +9°C° 0 mm 1 m/S 680 mmHg 95%
    23:00 +9°C° 0 mm 1 m/S 679 mmHg 94%

    30 September, Samstag

    Zeit Temperatur Niederschläge Wind Luftdruck Luftfeuchtigkeit
    00:00 +8°C° 0 mm 1 m/S 679 mmHg 94%
    01:00 +8°C° 0 mm 1 m/S 679 mmHg 93%
    02:00 +8°C° 0 mm 1 m/S 679 mmHg 93%
    03:00 +8°C° 0 mm 1 m/S 679 mmHg 92%
    04:00 +7°C° 0 mm 1 m/S 679 mmHg 92%
    05:00 +8°C° 0 mm 1 m/S 679 mmHg 91%
    06:00 +8°C° 0 mm 1 m/S 679 mmHg 90%
    07:00 +8°C° 0 mm 1 m/S 679 mmHg 89%
    08:00 +11°C° 0 mm 1 m/S 679 mmHg 81%
    09:00 +13°C° 0 mm 1 m/S 680 mmHg 74%
    10:00 +15°C° 0 mm 1 m/S 680 mmHg 66%
    11:00 +16°C° 0 mm 1 m/S 680 mmHg 63%
    12:00 +18°C° 0 mm 1 m/S 680 mmHg 61%
    13:00 +18°C° 0 mm 1 m/S 679 mmHg 58%
    14:00 +18°C° 0 mm 1 m/S 679 mmHg 62%
    15:00 +16°C° 0 mm 1 m/S 679 mmHg 66%
    16:00 +15°C° 0 mm 1 m/S 678 mmHg 71%
    17:00 +13°C° 0 mm 1 m/S 678 mmHg 79%
    18:00 +11°C° 0 mm 1 m/S 678 mmHg 87%
    19:00 +9°C° 0 mm 1 m/S 678 mmHg 95%
    20:00 +9°C° 0 mm 1 m/S 678 mmHg 95%
    21:00 +9°C° 0 mm 1 m/S 678 mmHg 96%
    22:00 +8°C° 0 mm 1 m/S 678 mmHg 96%
    23:00 +8°C° 0 mm 1 m/S 678 mmHg 96%
    Mehr zeigen